• In Hungary
  • List of Countries
  • For 7 days
  • Water Temperature
  • Satellite Maps
  • Weather Map
  • News
  • Weather Widgets
  • user-avatar
    Login

    Hourly Weather Dallas

    Today, 26 September, Wednesday

    Time Temperature Precipitation Wind Pressure Humidity
    00:00 +26°C° 0 mm 2 mps 750 mmHg 82%
    01:00 +26°C° 0.1 mm 2 mps 750 mmHg 83%
    02:00 +26°C° 0.1 mm 2 mps 750 mmHg 84%
    03:00 +26°C° 0.1 mm 2 mps 750 mmHg 86%
    04:00 +25°C° 0.4 mm 3 mps 750 mmHg 86%
    05:00 +23°C° 0.4 mm 4 mps 751 mmHg 86%
    06:00 +22°C° 0.4 mm 5 mps 751 mmHg 86%
    07:00 +22°C° 0.3 mm 5 mps 752 mmHg 84%
    08:00 +22°C° 0.3 mm 6 mps 752 mmHg 82%
    09:00 +22°C° 0.3 mm 6 mps 753 mmHg 80%
    10:00 +23°C° 0.1 mm 6 mps 753 mmHg 77%
    11:00 +24°C° 0.1 mm 6 mps 753 mmHg 73%
    12:00 +26°C° 0.1 mm 6 mps 753 mmHg 70%
    13:00 +26°C° 0 mm 6 mps 753 mmHg 68%
    14:00 +26°C° 0 mm 7 mps 752 mmHg 67%
    15:00 +26°C° 0 mm 7 mps 752 mmHg 65%
    16:00 +24°C° 0 mm 6 mps 752 mmHg 66%
    17:00 +23°C° 0 mm 6 mps 752 mmHg 67%
    18:00 +22°C° 0 mm 5 mps 752 mmHg 68%
    19:00 +22°C° 0 mm 5 mps 752 mmHg 67%
    20:00 +21°C° 0 mm 5 mps 752 mmHg 66%
    21:00 +21°C° 0 mm 4 mps 753 mmHg 66%
    22:00 +20°C° 0 mm 4 mps 753 mmHg 66%
    23:00 +20°C° 0 mm 4 mps 753 mmHg 66%

    Tomorrow, 27 September, Thursday

    Time Temperature Precipitation Wind Pressure Humidity
    00:00 +20°C° 0 mm 4 mps 752 mmHg 66%
    01:00 +19°C° 0 mm 4 mps 752 mmHg 67%
    02:00 +19°C° 0 mm 4 mps 752 mmHg 69%
    03:00 +19°C° 0 mm 4 mps 752 mmHg 70%
    04:00 +19°C° 0 mm 4 mps 752 mmHg 72%
    05:00 +18°C° 0 mm 3 mps 752 mmHg 73%
    06:00 +18°C° 0 mm 3 mps 752 mmHg 74%
    07:00 +19°C° 0 mm 3 mps 752 mmHg 73%
    08:00 +20°C° 0 mm 3 mps 752 mmHg 71%
    09:00 +20°C° 0 mm 2 mps 753 mmHg 69%
    10:00 +23°C° 0 mm 2 mps 752 mmHg 66%
    11:00 +24°C° 0 mm 1 mps 752 mmHg 63%
    12:00 +25°C° 0 mm 1 mps 752 mmHg 60%
    13:00 +26°C° 0 mm 1 mps 751 mmHg 58%
    14:00 +27°C° 0 mm 1 mps 750 mmHg 57%
    15:00 +28°C° 0 mm 1 mps 750 mmHg 55%
    16:00 +27°C° 0 mm 1 mps 749 mmHg 58%
    17:00 +27°C° 0 mm 1 mps 749 mmHg 61%
    18:00 +26°C° 0 mm 1 mps 749 mmHg 64%
    19:00 +25°C° 0 mm 2 mps 750 mmHg 68%
    20:00 +25°C° 0 mm 2 mps 750 mmHg 71%
    21:00 +24°C° 0 mm 3 mps 751 mmHg 74%
    22:00 +24°C° 0 mm 2 mps 751 mmHg 77%
    23:00 +23°C° 0 mm 2 mps 751 mmHg 79%

    Day after tomorrow, 28 September, Friday

    Time Temperature Precipitation Wind Pressure Humidity
    00:00 +23°C° 0 mm 2 mps 751 mmHg 81%
    01:00 +23°C° 0 mm 1 mps 750 mmHg 82%
    02:00 +23°C° 0 mm 1 mps 750 mmHg 84%
    03:00 +22°C° 0 mm 1 mps 750 mmHg 85%
    04:00 +22°C° 0 mm 1 mps 750 mmHg 86%
    05:00 +22°C° 0 mm 1 mps 750 mmHg 87%
    06:00 +21°C° 0 mm 2 mps 750 mmHg 88%
    07:00 +23°C° 0 mm 2 mps 751 mmHg 83%
    08:00 +24°C° 0 mm 2 mps 751 mmHg 79%
    09:00 +25°C° 0 mm 2 mps 752 mmHg 75%
    10:00 +27°C° 0 mm 2 mps 752 mmHg 70%
    11:00 +28°C° 0 mm 2 mps 752 mmHg 64%
    12:00 +29°C° 0 mm 2 mps 752 mmHg 59%
    13:00 +30°C° 0 mm 2 mps 751 mmHg 58%
    14:00 +30°C° 0 mm 2 mps 751 mmHg 56%
    15:00 +31°C° 0 mm 2 mps 750 mmHg 54%
    16:00 +30°C° 0 mm 3 mps 750 mmHg 59%
    17:00 +29°C° 0 mm 3 mps 750 mmHg 64%
    18:00 +28°C° 0 mm 3 mps 750 mmHg 69%
    19:00 +28°C° 0 mm 3 mps 751 mmHg 72%
    20:00 +27°C° 0 mm 3 mps 752 mmHg 74%
    21:00 +26°C° 0 mm 3 mps 752 mmHg 77%
    22:00 +26°C° 0 mm 3 mps 752 mmHg 79%
    23:00 +26°C° 0 mm 2 mps 752 mmHg 81%

    29 September, Saturday

    Time Temperature Precipitation Wind Pressure Humidity
    00:00 +25°C° 0 mm 2 mps 752 mmHg 83%
    01:00 +25°C° 0 mm 2 mps 752 mmHg 85%
    02:00 +25°C° 0 mm 2 mps 752 mmHg 87%
    03:00 +24°C° 0 mm 2 mps 752 mmHg 89%
    04:00 +24°C° 0 mm 2 mps 752 mmHg 90%
    05:00 +24°C° 0 mm 2 mps 752 mmHg 91%
    06:00 +24°C° 0 mm 2 mps 752 mmHg 91%
    07:00 +25°C° 0 mm 3 mps 752 mmHg 87%
    08:00 +26°C° 0 mm 3 mps 753 mmHg 83%
    09:00 +27°C° 0 mm 3 mps 753 mmHg 78%
    10:00 +28°C° 0.2 mm 3 mps 753 mmHg 73%
    11:00 +29°C° 0.2 mm 4 mps 752 mmHg 68%
    12:00 +32°C° 0.2 mm 4 mps 752 mmHg 63%
    13:00 +32°C° 0.3 mm 4 mps 751 mmHg 62%
    14:00 +32°C° 0.3 mm 4 mps 751 mmHg 61%
    15:00 +32°C° 0.3 mm 4 mps 750 mmHg 60%
    16:00 +30°C° 0 mm 4 mps 750 mmHg 64%
    17:00 +29°C° 0 mm 4 mps 750 mmHg 68%
    18:00 +29°C° 0 mm 3 mps 750 mmHg 72%
    19:00 +28°C° 0 mm 3 mps 751 mmHg 74%
    20:00 +27°C° 0 mm 3 mps 751 mmHg 77%
    21:00 +27°C° 0 mm 3 mps 751 mmHg 79%
    22:00 +27°C° 0 mm 3 mps 751 mmHg 80%
    23:00 +26°C° 0 mm 3 mps 751 mmHg 82%

    30 September, Sunday

    Time Temperature Precipitation Wind Pressure Humidity
    00:00 +26°C° 0 mm 3 mps 751 mmHg 83%
    01:00 +26°C° 0 mm 3 mps 751 mmHg 84%
    02:00 +25°C° 0 mm 3 mps 751 mmHg 85%
    03:00 +25°C° 0 mm 2 mps 751 mmHg 86%
    04:00 +25°C° 0 mm 2 mps 751 mmHg 85%
    05:00 +25°C° 0 mm 2 mps 751 mmHg 85%
    06:00 +25°C° 0 mm 2 mps 752 mmHg 85%
    07:00 +26°C° 0 mm 2 mps 752 mmHg 80%
    08:00 +27°C° 0 mm 3 mps 753 mmHg 76%
    09:00 +28°C° 0 mm 3 mps 753 mmHg 71%
    10:00 +29°C° 0 mm 3 mps 753 mmHg 65%
    11:00 +30°C° 0 mm 3 mps 752 mmHg 60%
    12:00 +31°C° 0 mm 3 mps 752 mmHg 54%
    13:00 +33°C° 0.1 mm 4 mps 752 mmHg 54%
    14:00 +33°C° 0.1 mm 4 mps 751 mmHg 54%
    15:00 +33°C° 0.1 mm 4 mps 750 mmHg 54%
    16:00 +32°C° 0 mm 4 mps 750 mmHg 58%
    17:00 +30°C° 0 mm 4 mps 751 mmHg 62%
    18:00 +29°C° 0 mm 3 mps 751 mmHg 66%
    19:00 +28°C° 0 mm 3 mps 751 mmHg 69%
    20:00 +28°C° 0 mm 3 mps 751 mmHg 71%
    21:00 +27°C° 0 mm 3 mps 752 mmHg 73%
    22:00 +27°C° 0.3 mm 3 mps 752 mmHg 77%
    23:00 +26°C° 0.3 mm 3 mps 752 mmHg 81%

    1 October, Monday

    Time Temperature Precipitation Wind Pressure Humidity
    00:00 +26°C° 0.3 mm 3 mps 752 mmHg 85%
    01:00 +25°C° 0 mm 3 mps 752 mmHg 85%
    02:00 +25°C° 0 mm 3 mps 752 mmHg 86%
    03:00 +25°C° 0 mm 3 mps 752 mmHg 87%
    04:00 +24°C° 0 mm 2 mps 752 mmHg 88%
    05:00 +24°C° 0 mm 2 mps 752 mmHg 89%
    06:00 +24°C° 0 mm 2 mps 753 mmHg 89%
    07:00 +25°C° 0 mm 3 mps 753 mmHg 85%
    08:00 +26°C° 0 mm 3 mps 753 mmHg 81%
    09:00 +27°C° 0 mm 3 mps 753 mmHg 76%
    10:00 +29°C° 0 mm 3 mps 753 mmHg 70%
    11:00 +30°C° 0 mm 4 mps 753 mmHg 64%
    12:00 +32°C° 0 mm 4 mps 753 mmHg 58%
    13:00 +33°C° 0 mm 4 mps 752 mmHg 56%
    14:00 +33°C° 0 mm 4 mps 752 mmHg 55%
    15:00 +34°C° 0 mm 4 mps 751 mmHg 54%
    16:00 +33°C° 0 mm 4 mps 751 mmHg 58%
    17:00 +32°C° 0 mm 4 mps 751 mmHg 62%
    18:00 +30°C° 0 mm 4 mps 751 mmHg 67%
    19:00 +29°C° 0 mm 4 mps 751 mmHg 69%
    20:00 +29°C° 0 mm 4 mps 752 mmHg 72%
    21:00 +28°C° 0 mm 4 mps 752 mmHg 74%
    22:00 +28°C° 0 mm 4 mps 752 mmHg 75%
    23:00 +27°C° 0 mm 3 mps 752 mmHg 77%
    Show more